Regional Weather Roundup
Issued by NWS

Home | Current Version | Previous Version | Text Only | Print | Product List | Glossary Off
Versions: 1 2 3 4 5 6 7 8 9 10 11 12 13 14 15 16 17 18 19 20 21 22 23 24 25 26 27

000
ASUS45 KCYS 290410
RWRWY

WYOMING REGIONAL WEATHER ROUNDUP
NATIONAL WEATHER SERVICE CHEYENNE WY
1000 PM MDT SAT MAY 28 2016

NOTE:  "FAIR" INDICATES FEW OR NO CLOUDS BELOW 12,000 FEET
WITH NO SIGNIFICANT WEATHER AND/OR OBSTRUCTIONS TO VISIBILITY.

WYZ001-290500-
YELLOWSTONE NATIONAL PARK

CITY           SKY/WX    TMP DP  RH WIND       PRES   REMARKS
LK YELLOWSTONE   N/A     37  29  72 NW3       30.22R
W YELLOWSTONE  NOT AVBL

$$
WYZ002>013-054>058-071-098>099-290500-
NORTHERN WYOMING

CITY           SKY/WX    TMP DP  RH WIND       PRES   REMARKS
JACKSON        FAIR      45  28  53 SE3       30.16R
CODY           FAIR      52  41  66 NW6       30.08R
GREYBULL       FAIR      62  42  47 NW9       30.00R
WORLAND        FAIR      57  43  59 NE5       30.00R
SHERIDAN       FAIR      52  46  80 S9        30.06R
BUFFALO          N/A     55  46  71 CALM      30.10R
GILLETTE       FAIR      44  40  85 CALM      30.06R
HULETT         FAIR      55  41  58 NE3       30.07R
NEWCASTLE      FAIR      55  41  58 E6        30.07R

$$
WYZ014>020-022>026-101>103-290500-
CENTRAL WYOMING

CITY           SKY/WX    TMP DP  RH WIND       PRES   REMARKS
BIG PINEY      FAIR      44  30  57 N10       30.17R
PINEDALE       FAIR      41  32  70 NW5       30.19R
DUBOIS         FAIR      46  18  31 NW9       30.17R
LANDER         FAIR      55  27  34 SW12      30.05R
RIVERTON       FAIR      55  27  34 NW10      30.06R
CASPER         FAIR      54  43  66 E9        30.06R
DOUGLAS          N/A    N/A N/A N/A MISG      30.10R

$$
WYZ021-027>030-104>119-290500-
SOUTHERN WYOMING

CITY           SKY/WX    TMP DP  RH WIND       PRES   REMARKS
EVANSTON       FAIR      50  28  42 W9        30.19R
KEMMERER         N/A     45  32  61 N9        30.20R
FORT BRIDGER   CLEAR     48  30  49 W7        30.22R
ROCK SPRINGS   FAIR      51  31  46 S5        30.16R
DIXON          CLOUDY    54  39  57 E5        30.21R
RAWLINS        FAIR      49  34  56 SW8       30.16R
SARATOGA       CLOUDY    50  41  71 S8        30.20R
LARAMIE        FAIR      46  31  55 W5        30.19R
CHEYENNE       FAIR      55  39  54 SW10      30.14R
TORRINGTON     FAIR      54  46  74 NE14      30.06R
PINE BLUFFS    LGT RAIN  52  45  76 S15       30.12R

$$




USA.gov is the U.S. government's official web portal to all federal, state and local government web resources and services.